CZ-6A DEB, 55882

Orbit data source: Space-Track

CZ-6A DEB, 55882 is space debris in SSO originally from a launch on Fri, 11 Nov 2022 UTC launched from the Taiyaun Space Center, China (TSC). Debris objects in space refer to the collection of defunct objects orbiting the Earth. Examples of debris include non-operational satellites, rocket bodies, and fragments generated from explosions, collisions, or faulty payload assembly.

Loading next visibility...
Identifier
55882, 2022-151AAE
Orbit
SSO
Country
Flag of CNCN / PRC
Related business
Manufacturer
SAST
Mission
Spacecraft
Bus & Motor
Unknown
Mass
Unknown
Launch date (UTC)
2022-11-11 (4 years ago)
Launch vehicle
Unknown
Launch site
Taiyaun Space Center, China (TSC)
Object type
Payload
Rocket body
Debris
Shape & HBR
Unknown shape, 0.1 m
Radar Cross Section
Small (<0.1 m²)

Expand to show TLE details & history
Last TLE update: 3 days ago

TLE from 3 days ago
0 CZ-6A DEB
1 55882U 22151AAE 26170.44672710  .00001182  00000-0  61719-3 0  9995
2 55882  98.8232 173.8986 0045977 330.2714  29.5848 14.15857411173404
Epoch: 2026-06-19T10:43Z
TLE epoch observation values (Epoch: 2026-06-19T10:43:17.221Z)
Latitude
-0.00006°
Longitude
105.40128°
Altitude
813.476 km
Speed
7.461 km/s
True Right ascension
11h 35m 35s
True Declination
0° 00' 00"
Sunlit
Object was in daylight at epoch
Visualization orbit readout
Latitude
Unknown
Longitude
Unknown
Altitude
Unknown
Speed
Unknown
Apparent Right ascension
Unknown
Apparent Declination
Unknown
Sunlit
N/A
Visualization observer readout
Local Sidereal Time
21:41:59
Azimuth
Unknown
Elevation
Unknown
Doppler factor
Unknown
Orbital elements
Apogee altitude
869.737 km
Perigee altitude
803.395 km
Semi-major axis
7,214.703 km
Eccentricity
0.0046
Inclination
98.8232°
RAAN
173.8986°
Arg. of periapsis
330.2714°
True anomaly
29.84622°
Mean anomaly
29.5848°
Eccentric anomaly
29.71538°
Mean motion
3.54173 °/min
Orbital period
101.65 mins
BSTAR
0.00061719
Loading maneuver chart data...
Computing Atmospheric mass density...
Loading historical data...
Loading historical data...
Loading historical data...
Loading historical data...
Loading historical data...
Loading historical data...
Loading historical data...

Documentation

Showing up to 5 results
|